Regional Weather Roundup
Issued by NWS

Home | Current Version | Previous Version | Text Only | Print | Product List | Glossary On
Versions: 1 2 3 4 5 6 7 8 9 10 11 12 13 14 15 16 17 18 19 20 21 22 23 24 25 26 27 28
000
ASUS44 KBMX 231010
RWRAL

ALABAMA REGIONAL WEATHER ROUNDUP
NATIONAL WEATHER SERVICE BIRMINGHAM AL
400 AM CST THU FEB 23 2017

NOTE: "FAIR" INDICATES FEW OR NO CLOUDS BELOW 12,000 FEET
WITH NO SIGNIFICANT WEATHER AND/OR OBSTRUCTIONS TO VISIBILITY.

THE REMARK "TC" DENOTES TEMPERATURE IN DEGREES CELSIUS.

ALZ001>011-014-016>018-020-231100-
NORTH ALABAMA

CITY           SKY/WX    TMP DP  RH WIND       PRES   REMARKS
MUSCLE SHOALS  FOG       53  51  93 E3        29.84S VSB 1/2
HUNTSVILLE     CLEAR     55  54  96 E8        29.85R
DECATUR        CLEAR     54  54 100 E5        29.85S FOG
HALEYVILLE     FAIR      56  56 100 SE6       29.86S FOG
GADSDEN        CLOUDY    53  53 100 N3        29.88R FOG
$$

ALZ012-013-022-023-030>036-040>044-231100-
WEST CENTRAL ALABAMA

CITY           SKY/WX    TMP DP  RH WIND       PRES   REMARKS
TUSCALOOSA     FOG       52  51  97 NE3       29.83F VSB 3/4
$$

ALZ015-024>027-033>036-040>044-231100-
CENTRAL ALABAMA

CITY           SKY/WX    TMP DP  RH WIND       PRES   REMARKS
BIRMINGHAM     PTCLDY    54  54 100 CALM      29.88R FOG
MONTGOMERY     CLOUDY    63  57  81 E5        29.83S
SHELBY CO ARPT FOG       53  53 100 CALM      29.86R VSB 1/2
MAXWELL AFB    CLOUDY    61  60  96 CALM      29.83R
GREENVILLE     CLOUDY    61  57  87 E7        29.82R
$$

ALZ019-021-028-029-037-038-045>048-231100-
EAST CENTRAL ALABAMA

CITY           SKY/WX    TMP DP  RH WIND       PRES   REMARKS
ANNISTON       CLOUDY    57  56  96 E3        29.87R
ALEXANDER CITY CLOUDY    59  58  96 CALM      29.85R
AUBURN         CLOUDY    61  58  90 E5        29.85S
$$

ALZ051>064-231100-
SOUTHWEST ALABAMA

CITY           SKY/WX    TMP DP  RH WIND       PRES   REMARKS
MOBILE         CLEAR     57  55  93 NE5       29.81S
BROOKLEY FIELD CLEAR     57  56  96 N5        29.81S
EVERGREEN      FOG       52  51  97 CALM      29.82R VSB 1/4
$$

ALZ049-050-065>069-231100-
SOUTHEAST ALABAMA

CITY           SKY/WX    TMP DP  RH WIND       PRES   REMARKS
DOTHAN         PTCLDY    58  58 100 N5        29.83R
OZARK          PTCLDY    59  59 100 N5        29.81R
TROY           CLOUDY    61  60  97 NE3       29.83R
EUFAULA        CLOUDY    63  60  90 NE3       29.81R
$$




USA.gov is the U.S. government's official web portal to all federal, state and local government web resources and services.